Location: �perlecques
(50.8057°N, 2.1521°E)
Time: 08:22:29
(UTC+00:00)

STARS - Pass Details

Date: 05 April 2023
Orbit: 616 x 630 km, 98.1° (Epoch: 03 June)

Event Time Altitude Azimuth Distance (km) Brightness Sun altitude
Rises 23:29:52 0° 12° (NNE) 2,920 ? -32.7°
Reaches altitude 10° 23:32:04 10° 11° (N) 2,011 ? -32.7°
Enters shadow 23:34:06 27° 7° (N) 1,209 ? -32.8°
